User: anonymous   Login
Location: Waldport
(44.4270°N, 124.0680°W)
Time: 20:35:13
(UTC-07:00)
Language:

Cosmos 1023 Rocket - Orbit

View from above orbital plane
View from above orbital plane
View from above satellite
View from above satellite

Ground track
Ground track

The orbit data is extracted from the following two-line orbital elements,

1 10962U 78063B   15241.50096115  .00000123  00000-0  46366-4 0  9997
2 10962 074.0819 352.9235 0024395 063.8536 296.5125 14.40938117951139
Epoch (UTC): 29 August 2015 12:01:23
Eccentricity: 0.0024395
inclination: 74.0819°
perigee height: 738 km
apogee height: 773 km
right ascension of ascending node: 352.9235°
argument of perigee: 63.8536°
revolutions per day: 14.40938117
mean anomaly at epoch: 296.5125°
orbit number at epoch: 95113

The dashed part of the orbit path shows where the satellite is in the earth's shadow,  

DLR